Location: Newark
(39.8500°N, 99.5772°W)
Time: 03:02:19
(UTC+00:00)

Hubble Space Telescope - Visible Passes

Search period start: 23 July 2019 00:00
Search period end: 02 August 2019 00:00
Orbit: 536 x 540 km, 28.5° (Epoch: 22 July)

Date Brightness Start Highest point End Pass type
(mag) Time Alt. Az. Time Alt. Az. Time Alt. Az.
30 Jul 3.2 09:46:38 10° SSE 09:46:38 10° SSE 09:47:01 10° SSE visible
31 Jul 3.2 09:36:38 11° SSE 09:36:38 11° SSE 09:37:06 10° SE visible
01 Aug 3.3 09:26:39 11° SE 09:26:39 11° SE 09:26:51 10° SE visible
01 Aug 2.6 11:02:34 10° SW 11:05:14 17° S 11:07:55 10° SE visible
